This demonstration page uses our WeatherBlox Daily Observations layout. Learn more.

Left ArrowRight Arrow

36.19886, -115.1175

Hourly Observations for September 16, 2021

Temp ( °F °C ) Dew Point ( °F °C ) Humidity (%) Winds ( mph kmh ) Pressure ( in mb ) Visibility ( mi km ) Precip ( " mm )
12:53 am 00:53 Clear 81 27.2 29 -1.7 15 15 N N/A 29.72 1007 10 16 N/A
1:53 am 01:53 Clear 77 25 29 -1.7 17 17 NW 5 7 29.72 1007 10 16 N/A
2:53 am 02:53 Clear 77 25 30 -1.1 18 18 WSW 3 6 29.72 1006 10 16 N/A
3:53 am 03:53 Clear 73 22.8 28 -2.2 19 19 W 7 11 29.72 1007 10 16 N/A
4:53 am 04:53 Clear 73 22.8 28 -2.2 19 19 WNW 6 9 29.72 1007 10 16 N/A
5:53 am 05:53 Clear 71 21.7 28 -2.2 20 20 NNW 6 9 29.74 1007 10 16 N/A
6:53 am 06:53 Sunny 71 21.7 28 -2.2 20 20 NW 3 6 29.76 1008 10 16 N/A
7:53 am 07:53 Sunny 75 23.9 29 -1.7 18 18 NW 3 6 29.77 1008 10 16 N/A
8:53 am 08:53 Sunny 81 27.2 28 -2.2 14 14 N N/A 29.78 1009 10 16 N/A
9:53 am 09:53 Sunny 86 30 29 -1.7 13 13 E 5 7 29.78 1008 10 16 N/A
10:53 am 10:53 Sunny 90 32.2 28 -2.2 11 11 ESE 9 15 29.77 1008 10 16 N/A
11:53 am 11:53 Sunny 96 35.6 24 -4.4 7 7 SE 14 22 29.74 1007 10 16 N/A
12:53 pm 12:53 Sunny 98 36.7 14 -10 4 4 SSW 12 19 29.72 1007 10 16 N/A
1:53 pm 13:53 Sunny 99 37.2 19 -7.2 5 5 SW 13 20 29.71 1006 10 16 N/A
2:53 pm 14:53 Sunny 99 37.2 16 -8.9 5 5 S 20 31 29.70 1006 10 16 N/A
3:53 pm 15:53 Sunny 99 37.2 15 -9.4 5 5 WSW 10 17 29.70 1006 10 16 N/A
4:53 pm 16:53 Sunny 100 37.8 15 -9.4 4 4 WSW 14 22 29.70 1006 10 16 N/A
5:53 pm 17:53 Sunny 98 36.7 17 -8.3 5 5 W 9 15 29.70 1006 10 16 N/A
6:53 pm 18:53 Clear 95 35 19 -7.2 6 6 WSW 9 15 29.71 1006 10 16 N/A
7:53 pm 19:53 Clear 93 33.9 21 -6.1 7 7 WSW 9 15 29.72 1007 10 16 N/A
8:53 pm 20:53 Clear 91 32.8 22 -5.6 8 8 W 12 19 29.74 1007 10 16 N/A
9:53 pm 21:53 Clear 89 31.7 21 -6.1 8 8 WSW 9 15 29.75 1007 10 16 N/A
10:53 pm 22:53 Clear 86 30 21 -6.1 9 9 SSW 6 9 29.77 1008 10 16 N/A
11:53 pm 23:53 Clear 82 27.8 23 -5 11 11 NNW 7 11 29.78 1009 10 16 N/A

Powered by AerisWeather